This is the latest recevied weather packets stored in our database for station/object WX7FGZ-6. If no packets are shown the sender has not sent any weather packets the latest 10 day(s).
| Time | Temp. | Humidity | Pressure | Rain* | Wind** | Luminosity | Snow |
|---|---|---|---|---|---|---|---|
| 1777560974 | 1.11° C | 36% | 1019.3 hPa | 0 mm | - | - | - |
| 1777560674 | 1.11° C | 32% | 1018.8 hPa | 0 mm | - | - | - |
| 1777560374 | 0.56° C | 31% | 1018.5 hPa | 0 mm | - | - | - |
| 1777560074 | 0° C | 33% | 1018 hPa | 0 mm | - | - | - |
| 1777559774 | -0.56° C | 34% | 1017.5 hPa | 0 mm | - | - | - |
| 1777559473 | -0.56° C | 36% | 1017.3 hPa | 0 mm | - | - | - |
| 1777559173 | -0.56° C | 38% | 1017.4 hPa | 0 mm | - | - | - |
| 1777558873 | -0.56° C | 38% | 1017.4 hPa | 0 mm | - | - | - |
| 1777558573 | -0.56° C | 36% | 1017.5 hPa | 0 mm | - | - | - |
| 1777558273 | -0.56° C | 37% | 1017.4 hPa | 0 mm | - | - | - |
| 1777557973 | -0.56° C | 37% | 1017.4 hPa | 0 mm | - | - | - |
| 1777557720 | -0.56° C | 37% | 1017.3 hPa | 0 mm | - | - | - |
| 1777557674 | -0.56° C | 37% | 1017.4 hPa | 0 mm | - | - | - |
| 1777557374 | -0.56° C | 37% | 1017.3 hPa | 0 mm | - | - | - |
| 1777557357 | -0.56° C | 38% | 1017.2 hPa | 0 mm | - | - | - |
| 1777557074 | -0.56° C | 38% | 1017.2 hPa | 0 mm | - | - | - |
| 1777556774 | -0.56° C | 39% | 1017.2 hPa | 0 mm | - | - | - |
| 1777556176 | -0.56° C | 39% | 1017.1 hPa | 0 mm | - | - | - |
| 1777555876 | -0.56° C | 39% | 1017.1 hPa | 0 mm | - | - | - |
| 1777555576 | -1.11° C | 40% | 1017 hPa | 0 mm | - | - | - |
| 1777555276 | -1.11° C | 41% | 1017 hPa | 0 mm | - | - | - |
| 1777554908 | -1.11° C | 43% | 1017 hPa | 0 mm | - | - | - |
| 1777554631 | -1.11° C | 45% | 1017 hPa | 0 mm | - | - | - |
| 1777554608 | -1.11° C | 43% | 1017 hPa | 0 mm | - | - | - |
| 1777554307 | -1.11° C | 45% | 1017 hPa | 0 mm | - | - | - |
* Rain latest hour (hover to see other rain measurements)
** Current wind speed in m/s (hover to see current wind gust speed)